This is the latest recevied weather packets stored in our database for station/object OK1PMP-6. If no packets are shown the sender has not sent any weather packets the latest 10 day(s).
| Time | Temp. | Humidity | Pressure | Rain* | Wind** | Luminosity | Snow |
|---|---|---|---|---|---|---|---|
| 1777979722 | 23.33° C | 41% | 1010.2 hPa | 0 mm | - | 422 W/m² | - |
| 1777978819 | 23.89° C | 37% | 1010.1 hPa | 0 mm | - | 608 W/m² | - |
| 1777977918 | 23.89° C | 40% | 1010.4 hPa | 0 mm | - | 763 W/m² | - |
| 1777977021 | 22.78° C | 38% | 1010.8 hPa | 0 mm | - | 715 W/m² | - |
| 1777976116 | 23.33° C | 38% | 1010.8 hPa | 0 mm | - | 715 W/m² | - |
| 1777975211 | 23.33° C | 38% | 1010.8 hPa | 0 mm | - | 700 W/m² | - |
| 1777974309 | 24.44° C | 38% | 1011.1 hPa | 0 mm | - | 119 W/m² | - |
| 1777973408 | 23.89° C | 39% | 1011.2 hPa | 0 mm | - | 678 W/m² | - |
| 1777972505 | 22.78° C | 43% | 1011.2 hPa | 0 mm | - | 665 W/m² | - |
| 1777971596 | 22.22° C | 42% | 1011.4 hPa | 0 mm | - | 644 W/m² | - |
| 1777970693 | 21.11° C | 42% | 1011.5 hPa | 0 mm | - | 622 W/m² | - |
| 1777969792 | 20.56° C | 42% | 1011.6 hPa | 0 mm | - | 600 W/m² | - |
| 1777968892 | 20° C | 43% | 1011.7 hPa | 0 mm | - | 568 W/m² | - |
| 1777967990 | 20° C | 47% | 1011.8 hPa | 0 mm | - | 547 W/m² | - |
| 1777966184 | 18.89° C | 49% | 1012 hPa | 0 mm | - | 503 W/m² | - |
| 1777965288 | 18.33° C | 50% | 1012 hPa | 0 mm | - | 431 W/m² | - |
| 1777964382 | 18.33° C | 50% | 1012.2 hPa | 0 mm | - | 470 W/m² | - |
| 1777963481 | 18.33° C | 54% | 1012 hPa | 0 mm | - | 254 W/m² | - |
| 1777962583 | 17.78° C | 55% | 1012.3 hPa | 0 mm | - | 449 W/m² | - |
| 1777961678 | 17.22° C | 62% | 1012.2 hPa | 0 mm | - | 179 W/m² | - |
| 1777960777 | 16.11° C | 67% | 1012.4 hPa | 0 mm | - | 237 W/m² | - |
| 1777959880 | 15.56° C | 77% | 1012.4 hPa | 0 mm | - | 208 W/m² | - |
| 1777958972 | 14.44° C | 78% | 1012.3 hPa | 0 mm | - | 206 W/m² | - |
| 1777958071 | 12.78° C | 83% | 1012.3 hPa | 0 mm | - | 117 W/m² | - |
| 1777957169 | 12.78° C | 82% | 1012.2 hPa | 0 mm | - | 54 W/m² | - |
* Rain latest hour (hover to see other rain measurements)
** Current wind speed in m/s (hover to see current wind gust speed)